Regional Weather Roundup
Issued by NWS Burlington, VT

Home | Current Version | Previous Version | Text Only | Print | Product List | Glossary On
Versions: 1 2 3 4 5 6 7 8 9 10 11 12 13 14 15 16 17 18 19 20 21 22 23 24 25 26 27 28 29 30 31 32 33 34 35 36 37 38 39 40 41 42 43 44 45 46 47 48 49 50
000
ASUS41 KBTV 210410
RWRBTV
VERMONT REGIONAL WEATHER ROUNDUP
NATIONAL WEATHER SERVICE BURLINGTON VT
1200 AM EDT MON AUG 21 2017

NOTE: "FAIR" INDICATES FEW OR NO CLOUDS BELOW 12,000 FEET WITH NO
SIGNIFICANT WEATHER AND/OR OBSTRUCTIONS TO VISIBILITY.

* THESE REPORTS ARE NOT UNDER NWS QUALITY CONTROL AND/OR DO NOT
  REPORT WEATHER SUCH AS PRECIPITATION AND FOG.

VTZ001>019-210500-
_____VERMONT_____


CITY           SKY/WX    TMP DP  RH WIND       PRES   REMARKS
BURLINGTON     CLEAR     64  61  90 E3        30.09R
MONTPELIER     CLEAR     59  57  93 CALM      30.15R
MORRISVILLE    CLEAR     57  56  96 CALM      30.12R
ST. JOHNSBURY*   N/A     59  59 100 MISG      30.10R
LYNDONVILLE*   FAIR      58  58  98 CALM      30.13R
MIDDLEBURY*    FAIR      62  58  86 SE3       30.11R
RUTLAND*       CLEAR     61  57  87 SE9       30.14R
SPRINGFIELD    CLEAR     58  56  93 CALM      30.13R
HIGHGATE*      FAIR      66  61  84 S3        30.07R
NEWPORT*       FAIR      58  57  97 CALM      30.11R
BENNINGTON     CLEAR     59  56  89 CALM      30.15R
SUTTON*          N/A     59 N/A N/A MISG        N/A

_____LAKE CHAMPLAIN_____


CITY           SKY/WX    TMP DP  RH WIND       PRES   REMARKS
BURTON ISLAND*   N/A     72  63  73 SW9         N/A
COLCHESTER RF*   N/A     75  61  60 SW8         N/A
DIAMOND ISL*     N/A     68  61  77 E6          N/A

$$

NYZ007-026>031-035-052-083-087-210500-
_____NORTHERN NEW YORK_____


CITY           SKY/WX    TMP DP  RH WIND       PRES   REMARKS
PLATTSBURGH    CLEAR     63  59  87 CALM      30.07R
SARANAC LAKE   CLEAR     53  53 100 CALM      30.14R FOG
MASSENA        CLEAR     66  63  90 SW8       30.07S
OGDENSBURG*    FAIR      66  64  93 S6        30.08R
POTSDAM*       CLEAR     66  66 100 S5        30.09S
WATERTOWN      PTCLDY    67  63  87 S6        30.10S
FT DRUM        PTCLDY    67  61  81 S6        30.10S
ALBANY         CLEAR     66  59  78 CALM      30.14R
GLENS FALLS    CLEAR     59  58  96 CALM      30.12R FOG

$$
NHZ002-005-011-210500-
_____NEW HAMPSHIRE_____


CITY           SKY/WX    TMP DP  RH WIND       PRES   REMARKS
LEBANON        CLEAR     59  58  96 CALM      30.11R
KEENE            N/A    N/A N/A N/A MISG        N/A
MT WASHINGTON  FOG       46  46 100 W45G53      N/A  VSB 1/16
PLYMOUTH       FAIR      56  55  95 CALM      30.11R FOG
WHITEFIELD     CLEAR     54  50  86 CALM      30.12R

$$

_____REGIONAL QUEBEC LOCATIONS_____


CITY           SKY/WX    TMP DP  RH WIND       PRES   REMARKS
MONTREAL       CLEAR     70  64  83 W9        30.04R
QUEBEC CITY    PTCLDY    64  63  94 SW6       29.99R
SHERBROOKE     CLEAR     61  59  94 SW6       30.07R

_____REGIONAL ONTARIO LOCATIONS_____


CITY           SKY/WX    TMP DP  RH WIND       PRES   REMARKS
OTTAWA         PTCLDY    66  64  94 SW6       30.05R

______KEY______
VSB  - VISIBILITY IN MILES
WCI  - WIND CHILL INDEX
HX   - HEAT INDEX
$$
NNNN




USA.gov is the U.S. government's official web portal to all federal, state and local government web resources and services.